Home   Weather   Amadora   Past weeks

Flag for Portugal Past Weather in Amadora, Portugal — Yesterday and Last 2 Weeks

Now
52 °F

Clear.


Feels Like: 50 °F
Forecast: 53 / 64 °F
Wind: 6 mph from Northeast

Location: Lisbon Portela Airport

Current Time: Dec 8, 2016 at 2:22:54 am

Latest Report: Dec 8, 2016 at 2:00 am


Visibility: 10 mi

Pressure: 30.33 "Hg

Humidity: 94%

Dew Point: 50 °F

Location of AmadoraLocation

Past Weather in Amadora — Graph

°F

Amadora Temperature Yesterday

Maximum temperature yesterday: 59 °F (at 12:30 pm)
Minimum temperature yesterday: 52 °F (at 1:30 am)
Average temperature yesterday: 55 °F

High & Low Weather Summary for the Past Weeks

 TemperatureHumidityPressure
High66 °F (Dec 5, 2:30 pm)100% (Nov 25, 1:00 am)30.36 "Hg (Nov 25, 1:00 am)
Low46 °F (Nov 23, 1:00 am)51% (Nov 23, 1:30 pm)29.53 "Hg (Nov 25, 5:30 am)
Average55 °F87%29.89 "Hg
* Reported Nov 23 1:00 am — Dec 8 1:00 am, Amadora, Weather by CustomWeather, © 2016

Note: Actual official high and low records may vary slightly from our data, if they occured in-between our weather recording intervals... More about our weather records

Advertising

Amadora Weather History for the Previous 24 Hours

Scroll right to see more
 ConditionsComfort  
Time TempWeatherWind HumidityBarometerVisibility
1:00 am
Thu, Dec 8
52 °FClear.6 mph94%30.33 "Hg10 mi
12:30 am54 °FClear.5 mph94%30.33 "Hg10 mi
12:00 am54 °FPassing clouds.5 mph94%30.33 "HgN/A
11:30 pm
Wed, Dec 7
54 °FClear.5 mph94%30.33 "Hg10 mi
11:00 pm55 °FPassing clouds.5 mph88%30.33 "HgN/A
10:30 pm55 °FClear.5 mph94%30.33 "Hg10 mi
10:00 pm55 °FClear.5 mph94%30.33 "Hg10 mi
9:30 pm57 °FClear.7 mph88%30.33 "Hg10 mi
9:00 pm57 °FClear.6 mph88%30.33 "Hg10 mi
8:30 pm57 °FClear.6 mph94%30.33 "Hg10 mi
8:00 pm57 °FClear.6 mph88%30.33 "Hg10 mi
7:30 pm57 °FClear.5 mph94%30.33 "Hg10 mi
7:00 pm57 °FClear.5 mph88%30.33 "Hg10 mi
6:30 pm57 °FClear.5 mph88%30.33 "Hg10 mi
6:00 pm57 °FClear.5 mph88%30.33 "Hg10 mi
5:30 pm57 °FPassing clouds.5 mph94%30.33 "HgN/A
5:00 pm59 °FPassing clouds.6 mph88%30.30 "HgN/A
4:30 pm59 °FPassing clouds.7 mph88%30.30 "HgN/A
4:00 pm59 °FPassing clouds.6 mph88%30.30 "HgN/A
3:30 pm59 °FSunny.8 mph88%30.30 "Hg10 mi
3:00 pm59 °FPassing clouds.6 mph88%30.30 "HgN/A
2:30 pm59 °FPassing clouds.7 mph82%30.30 "HgN/A
2:00 pm57 °FPassing clouds.9 mph88%30.30 "HgN/A
1:30 pm59 °FPassing clouds.8 mph82%30.30 "HgN/A
1:00 pm59 °FPassing clouds.6 mph82%30.33 "HgN/A
12:30 pm59 °FSunny.7 mph82%30.33 "Hg10 mi
12:00 pm57 °FPassing clouds.8 mph88%30.33 "HgN/A
11:30 am57 °FPassing clouds.6 mph88%30.36 "HgN/A
11:00 am57 °FPassing clouds.6 mph88%30.36 "HgN/A
10:30 am55 °FPassing clouds.9 mph88%30.36 "HgN/A
10:00 am55 °FPassing clouds.8 mph88%30.36 "HgN/A
9:30 am54 °FPassing clouds.8 mph94%30.36 "HgN/A
9:00 am52 °FPassing clouds.6 mph100%30.33 "HgN/A
8:30 am52 °FSunny.7 mph100%30.33 "Hg10 mi
8:00 am52 °FPassing clouds.7 mph100%30.33 "HgN/A
7:30 am52 °FPassing clouds.8 mph100%30.30 "HgN/A
7:00 am52 °FPassing clouds.7 mph100%30.30 "HgN/A
6:30 am52 °FPassing clouds.6 mph100%30.30 "Hg6 mi
6:00 am52 °FPassing clouds.5 mph100%30.30 "Hg4 mi
5:30 am52 °FPassing clouds.6 mph100%30.30 "Hg4 mi
5:00 am52 °FPassing clouds.3 mph100%30.30 "Hg5 mi
4:30 am52 °FPassing clouds.3 mph100%30.30 "Hg5 mi
4:00 am52 °FPassing clouds.6 mph100%30.30 "HgN/A
3:30 am54 °FPassing clouds.2 mph100%30.30 "HgN/A
3:00 am54 °FPassing clouds.3 mph100%30.30 "Hg6 mi
2:30 am54 °FRain. Fog.2 mph100%30.30 "Hg3 mi
2:00 am54 °FFog.3 mph100%30.27 "Hg0 mi
Weather by CustomWeather, © 2016

See weather overviewHow to use our weather pages